Weather History for KY51 - December, 2012

Change the Weather History Date:

Tuesday, December 11, 2012

  Actual Average (KLSE) Record (KLSE)
Temperature  
Mean Temperature 19 °F 23 °F  
Max Temperature 26 °F 30 °F 57 °F (1949)
Min Temperature 12 °F 16 °F -11 °F (1936)
Degree Days  
Heating Degree Days 46 42  
Month to date heating degree days 441  
Since 1 July heating degree days 1941  
Cooling Degree Days 0 0  
Month to date cooling degree days 0  
Year to date cooling degree days 782  
Moisture  
Dew Point 20 °F    
Average Humidity 95    
Maximum Humidity 100    
Minimum Humidity 80    
Precipitation  
Precipitation 0.00 in 0.05 in 0.99 in (2010)
Month to date precipitation 0.58  
Year to date precipitation 32.28  
Snow  
Snow 0.00 in 0.40 in 13.90 in (2010)
Month to date snowfall 4.2  
Since 1 July snowfall 8.5  
Snow Depth -    
Sea Level Pressure  
Sea Level Pressure 29.89 in    
Wind  
Wind Speed 7 mph (SW)    
Max Wind Speed 13 mph    
Max Gust Speed -    
Visibility 9 miles    
Events      
T = Trace of Precipitation, MM = Missing Value Source: NWS Daily Summary

Daily Weather History Graph

Daily Weather History Graph

Search for Another Location

Airport or City:

Trip Planner

Search our weather history database for the weather conditions in past years. The results will help you decide how hot, cold, wet, or windy it might be!

Date:

Astronomy

Dec. 11, 2012 Rise Set
Actual Time 7:27 AM CST 4:27 PM CST
Civil Twilight 6:54 AM CST 4:59 PM CST
Nautical Twilight 6:18 AM CST 5:35 PM CST
Astronomical Twilight 5:43 AM CST 6:10 PM CST
Moon 5:20 AM CST (12/11) 3:07 PM CST (12/11)
Length of Visible Light 10h 05m
Length of Day
8h 59m
Waning Crescent, 4% of the Moon is Illuminated
Dec 11
Waning Crescent
Dec 13
New
Dec 19
First Quarter
Dec 28
Full
Jan 4
Last Quarter

Hourly Weather History & Observations

Time (CST) Temp. Windchill Dew Point Humidity Pressure Visibility Wind Dir Wind Speed Gust Speed Precip Events Conditions
12:15 AM 17.6 °F 8.2 °F 17.6 °F 100% 29.89 in 5.0 mi SW 6.9 mph - N/A   Overcast
12:35 AM 17.6 °F 8.2 °F 17.6 °F 100% 29.89 in 3.0 mi SSW 6.9 mph - N/A   Overcast
12:55 AM 15.8 °F 6.1 °F 15.8 °F 100% 29.89 in 7.0 mi SSW 6.9 mph - N/A   Overcast
1:15 AM 14.0 °F 3.9 °F 14.0 °F 100% 29.89 in 10.0 mi SSW 6.9 mph - N/A   Scattered Clouds
1:35 AM 12.2 °F 6.1 °F 12.2 °F 100% 29.87 in 10.0 mi South 3.5 mph - N/A   Clear
1:55 AM 12.2 °F 6.1 °F 12.2 °F 100% 29.87 in 10.0 mi South 3.5 mph - N/A   Clear
2:35 AM 12.2 °F 4.3 °F 12.2 °F 100% 29.86 in 7.0 mi SSE 4.6 mph - N/A   Clear
2:55 AM 12.2 °F 2.9 °F 12.2 °F 100% 29.86 in 7.0 mi SSE 5.8 mph - N/A   Clear
3:15 AM 12.2 °F 4.3 °F 12.2 °F 100% 29.85 in 7.0 mi SSE 4.6 mph - N/A   Clear
3:35 AM 12.2 °F 0.7 °F 12.2 °F 100% 29.85 in 7.0 mi SE 8.1 mph - N/A   Scattered Clouds
3:55 AM 12.2 °F 2.9 °F 12.2 °F 100% 29.84 in 7.0 mi SSE 5.8 mph - N/A   Mostly Cloudy
4:15 AM 14.0 °F 3.9 °F 14.0 °F 100% 29.84 in 10.0 mi South 6.9 mph - N/A   Overcast
4:35 AM 14.0 °F 2.9 °F 14.0 °F 100% 29.84 in 10.0 mi South 8.1 mph - N/A   Overcast
4:55 AM 14.0 °F 3.9 °F 14.0 °F 100% 29.83 in 10.0 mi South 6.9 mph - N/A   Overcast
5:15 AM 15.8 °F 5.1 °F 15.8 °F 100% 29.83 in 10.0 mi South 8.1 mph - N/A   Overcast
5:35 AM 15.8 °F 4.2 °F 15.8 °F 100% 29.83 in 10.0 mi SSE 9.2 mph - N/A   Overcast
5:55 AM 15.8 °F 5.1 °F 15.8 °F 100% 29.83 in 10.0 mi South 8.1 mph - N/A   Overcast
6:15 AM 15.8 °F 7.2 °F 15.8 °F 100% 29.83 in 10.0 mi South 5.8 mph - N/A   Overcast
6:35 AM 15.8 °F 6.1 °F 15.8 °F 100% 29.83 in 10.0 mi South 6.9 mph - N/A   Overcast
6:55 AM 15.8 °F 7.2 °F 15.8 °F 100% 29.83 in 10.0 mi South 5.8 mph - N/A   Overcast
7:15 AM 17.6 °F 8.2 °F 17.6 °F 100% 29.83 in 10.0 mi South 6.9 mph - N/A   Overcast
7:35 AM 17.6 °F 7.3 °F 17.6 °F 100% 29.83 in 7.0 mi SSW 8.1 mph - N/A   Overcast
7:55 AM 17.6 °F 6.4 °F 17.6 °F 100% 29.83 in 4.0 mi SSW 9.2 mph - N/A   Overcast
8:15 AM 19.4 °F 9.5 °F 17.6 °F 93% 29.83 in 7.0 mi SSW 8.1 mph - N/A   Overcast
8:55 AM 19.4 °F 9.5 °F 17.6 °F 93% 29.86 in 3.0 mi SW 8.1 mph - N/A   Overcast
9:15 AM 19.4 °F 8.6 °F 17.6 °F 93% 29.86 in 2.5 mi SW 9.2 mph - N/A   Overcast
9:35 AM 19.4 °F 9.5 °F 17.6 °F 93% 29.86 in 4.0 mi SW 8.1 mph - N/A   Overcast
9:55 AM 21.2 °F 10.1 °F 17.6 °F 86% 29.86 in 7.0 mi SW 10.4 mph - N/A   Overcast
10:15 AM 21.2 °F 11.7 °F 19.4 °F 93% 29.87 in 10.0 mi SW 8.1 mph - N/A   Overcast
10:35 AM 21.2 °F 10.9 °F 19.4 °F 93% 29.87 in 10.0 mi SW 9.2 mph - N/A   Overcast
10:55 AM 23.0 °F 12.4 °F 19.4 °F 86% 29.87 in 10.0 mi WSW 10.4 mph - N/A   Overcast
11:15 AM 23.0 °F 13.1 °F 19.4 °F 86% 29.86 in 10.0 mi WSW 9.2 mph - N/A   Scattered Clouds
11:35 AM 23.0 °F 11.1 °F 19.4 °F 86% 29.86 in 10.0 mi WSW 12.7 mph - N/A   Scattered Clouds
11:55 AM 23.0 °F 11.1 °F 19.4 °F 86% 29.86 in 10.0 mi WSW 12.7 mph - N/A   Scattered Clouds
12:15 PM 23.0 °F 11.1 °F 19.4 °F 86% 29.86 in 10.0 mi WSW 12.7 mph - N/A   Scattered Clouds
12:35 PM 23.0 °F 11.1 °F 21.2 °F 93% 29.87 in 10.0 mi WSW 12.7 mph - N/A   Mostly Cloudy
12:55 PM 24.8 °F 14.0 °F 19.4 °F 80% 29.86 in 10.0 mi WSW 11.5 mph - N/A   Overcast
1:15 PM 24.8 °F 15.3 °F 19.4 °F 80% 29.87 in 10.0 mi WSW 9.2 mph - N/A   Overcast
1:35 PM 24.8 °F 15.3 °F 19.4 °F 80% 29.87 in 10.0 mi WSW 9.2 mph - N/A   Overcast
1:55 PM 24.8 °F 17.9 °F 19.4 °F 80% 29.87 in 10.0 mi WSW 5.8 mph - N/A   Overcast
2:15 PM 24.8 °F 16.1 °F 19.4 °F 80% 29.87 in 10.0 mi WSW 8.1 mph - N/A   Overcast
2:35 PM 24.8 °F 15.3 °F 19.4 °F 80% 29.87 in 10.0 mi WSW 9.2 mph - N/A   Overcast
2:55 PM 24.8 °F 17.9 °F 21.2 °F 86% 29.88 in 10.0 mi WSW 5.8 mph - N/A   Overcast
3:15 PM 24.8 °F 15.3 °F 21.2 °F 86% 29.89 in 3.0 mi SW 9.2 mph - N/A   Overcast
3:35 PM 24.8 °F 15.3 °F 21.2 °F 86% 29.89 in 4.0 mi SW 9.2 mph - N/A   Overcast
3:55 PM 24.8 °F 16.9 °F 21.2 °F 86% 29.90 in 7.0 mi SW 6.9 mph - N/A   Overcast
4:15 PM 24.8 °F 16.9 °F 23.0 °F 93% 29.90 in 10.0 mi SSW 6.9 mph - N/A   Overcast
4:35 PM 24.8 °F 16.9 °F 23.0 °F 93% 29.90 in 10.0 mi SSW 6.9 mph - N/A   Overcast
4:55 PM 24.8 °F 16.9 °F 23.0 °F 93% 29.90 in 7.0 mi SW 6.9 mph - N/A   Overcast
5:15 PM 24.8 °F 17.9 °F 24.8 °F 100% 29.91 in 7.0 mi SW 5.8 mph - N/A   Overcast
5:35 PM 24.8 °F 17.9 °F 24.8 °F 100% 29.92 in 7.0 mi WSW 5.8 mph - N/A   Overcast
5:55 PM 24.8 °F 19.1 °F 24.8 °F 100% 29.92 in 7.0 mi SW 4.6 mph - N/A   Overcast
6:15 PM 24.8 °F 17.9 °F 24.8 °F 100% 29.93 in 7.0 mi SW 5.8 mph - N/A   Overcast
6:35 PM 24.8 °F 17.9 °F 24.8 °F 100% 29.94 in 10.0 mi SW 5.8 mph - N/A   Overcast
6:55 PM 26.6 °F 19.1 °F 26.6 °F 100% 29.94 in 10.0 mi SW 6.9 mph - N/A   Overcast
7:15 PM 24.8 °F 19.1 °F 24.8 °F 100% 29.94 in 10.0 mi SSW 4.6 mph - N/A   Overcast
7:35 PM 26.6 °F 20.0 °F 26.6 °F 100% 29.94 in 10.0 mi WSW 5.8 mph - N/A   Overcast
7:55 PM 26.6 °F 20.0 °F 26.6 °F 100% 29.95 in 10.0 mi WSW 5.8 mph - N/A   Overcast
8:15 PM 26.6 °F 19.1 °F 26.6 °F 100% 29.96 in 10.0 mi WSW 6.9 mph - N/A   Overcast
8:35 PM 26.6 °F 19.1 °F 26.6 °F 100% 29.96 in 10.0 mi West 6.9 mph - N/A   Overcast
8:55 PM 26.6 °F 20.0 °F 26.6 °F 100% 29.98 in 10.0 mi WSW 5.8 mph - N/A   Overcast
9:35 PM 26.6 °F 20.0 °F 26.6 °F 100% 29.98 in 10.0 mi WSW 5.8 mph - N/A   Overcast
9:55 PM 26.6 °F 20.0 °F 26.6 °F 100% 29.99 in 10.0 mi WSW 5.8 mph - N/A   Overcast
10:15 PM 26.6 °F 20.0 °F 26.6 °F 100% 29.99 in 10.0 mi WSW 5.8 mph - N/A   Overcast
10:35 PM 26.6 °F 21.2 °F 26.6 °F 100% 30.00 in 10.0 mi WSW 4.6 mph - N/A   Overcast
10:55 PM 26.6 °F 22.6 °F 26.6 °F 100% 30.00 in 10.0 mi WSW 3.5 mph - N/A   Overcast
11:15 PM 26.6 °F 22.6 °F 26.6 °F 100% 30.02 in 10.0 mi WSW 3.5 mph - N/A   Overcast
11:35 PM 26.6 °F 22.6 °F 24.8 °F 93% 30.02 in 10.0 mi WSW 3.5 mph - N/A   Overcast
11:55 PM 26.6 °F - 24.8 °F 93% 30.03 in 10.0 mi Calm Calm - N/A   Overcast